Flag for Pakistan Weather past 2 weeks in Narowal, Pakistan

57 °F


Feels Like: 57 °F
Forecast: 51 / 75 °F
Wind: No wind

Location: Amritsar Airport

Current Time: Nov 26, 2015 at 6:08:01 AM

Latest Report: Nov 26, 2015 at 5:00 AM

Visibility: 2 mi

Pressure: 29.92 "Hg

Humidity: 82%

Dew point: 52 °F

Location of NarowalLocation

Historic Weather in Narowal — Graph


Narowal temperature yesterday

Maximum temperature yesterday: 79 °F (at 3:30 PM)
Minimum temperature yesterday: 52 °F (at 2:30 AM)
Average temperature yesterday: 64 °F

Past Weeks' High & Low Weather Summary

High82 °F (Nov 15, 2:30 PM)100% (Nov 11, 5:00 AM)30.15 "Hg (Nov 11, 5:00 AM)
Low48 °F (Nov 18, 6:00 AM)26% (Nov 25, 4:00 PM)29.89 "Hg (Nov 14, 2:00 PM)
Average64 °F68%29.99 "Hg
* Reported Nov 11 5:00 AM — Nov 26 5:00 AM, Narowal, Weather by CustomWeather, © 2015

Note: Actual official high and low records may vary slightly from our data, if they occured in-between our weather recording intervals... More about our weather records


Narowal weather history for previous 24 hours

Time TempWeatherWind HumidityBarometerVisibility
5:00 AM
Thu, Nov 26
57 °FFog.No wind82%29.92 "Hg2 mi
4:30 AM55 °FFog.No wind82%29.92 "Hg2 mi
3:30 AM57 °FPartly cloudy.No wind72%29.95 "Hg2 mi
3:00 AM57 °FPartly cloudy.No wind77%29.95 "Hg2 mi
2:00 AM57 °FPartly cloudy.No wind77%29.95 "Hg2 mi
1:30 AM57 °FPartly cloudy.No wind72%29.98 "Hg2 mi
1:00 AM59 °FPartly cloudy.No wind68%29.98 "Hg2 mi
12:30 AM57 °FPartly cloudy.No wind72%29.98 "Hg2 mi
12:00 AM57 °FPartly cloudy.No wind77%29.98 "Hg2 mi
11:30 PM
Wed, Nov 25
59 °FPassing clouds.No wind68%29.98 "Hg3 mi
11:00 PM59 °FPassing clouds.No wind68%29.98 "Hg3 mi
10:30 PM61 °FPassing clouds.No wind63%29.98 "Hg3 mi
10:00 PM61 °FPassing clouds.No wind63%29.98 "Hg3 mi
9:30 PM61 °FPassing clouds.No wind68%29.98 "Hg3 mi
9:00 PM63 °FPassing clouds.No wind59%29.98 "Hg3 mi
8:30 PM61 °FPassing clouds.No wind63%29.98 "Hg3 mi
8:00 PM63 °FPassing clouds.No wind59%29.98 "Hg3 mi
7:30 PM63 °FPassing clouds.No wind59%29.98 "Hg3 mi
7:00 PM66 °FPassing clouds.No wind49%29.98 "Hg3 mi
6:00 PM68 °FPassing clouds.No wind43%29.95 "Hg3 mi
5:00 PM72 °FScattered clouds.No wind36%29.95 "Hg4 mi
4:30 PM75 °FScattered clouds.7 mph31%29.95 "Hg4 mi
4:00 PM77 °FScattered clouds.12 mph26%29.95 "Hg4 mi
3:30 PM79 °FScattered clouds.12 mph28%29.98 "Hg4 mi
11:00 AM73 °FScattered clouds.14 mph36%30.04 "Hg3 mi
8:00 AM54 °FFog.No wind88%30.04 "Hg1 mi
Weather by CustomWeather, © 2015

See weather overviewHow to use our weather pages